Torna al catalogo

SL-3 R/B

AttivoPO
NORAD 13154·ROCKET BODY·🇷🇺 Russia

Lanciato May 5, 1982 da Plesetsk Cosmodrome

Loading…

Prossimi Passaggi (prossime 24 ore)

TLE

AggiornatoSource: Space-Track

Epoca: Sep 14, 2026, 12:21 UTC

1 13154U 82039B   26257.51527325  .00001520  00000-0  88761-4 0  9990
2 13154  81.1492 357.8841 0032113  57.4425 302.9895 15.10900766410145

Traccia SL-3 R/B in tempo reale con AllMySat

Download on the App Store